Location: Monfort
(47.1967°N, 0.2115°W)
Time: 04:24:48
(UTC+00:00)

Cosmos 1302 Rocket - Pass Details

Date: 24 October 2020
Orbit: 756 x 777 km, 74.0° (Epoch: 01 December)

Event Time Altitude Azimuth Distance (km) Brightness Sun altitude
Rises 18:20:18 0° 187° (S) 3,220 7.3 -14.8°
Reaches altitude 10° 18:22:42 10° 183° (S) 2,302 6.5 -15.2°
Maximum altitude 18:27:47 56° 107° (ESE) 919 4.0 -16.1°
Drops below altitude 10° 18:32:57 10° 30° (NNE) 2,330 6.2 -17.0°
Enters shadow 18:35:10 - 26° (NNE) 3,183 7.0 -17.4°
